TIME,DELAY(SENSOR),PRES,OXYGEN,RAWTEMP,T(OPTODE),TCPHASE,FLUOR,BETA(BETA700),BETA(BETA412),BETA(BETA440),CDOM,C(CSC),ED(ED411.90),ED(ED443.80),ED(ED489.40),ED(ED554.70),LU(LU412.20),LU(LU443.80),LU(LU489.40),LU(LU555.00),COMP,TILTX,TILTY,CHECK
1342824893,5802,875.2999877929688000,176.3386993408203000,466.1730041503906000,8.9353370666503900,39.4349288940429700,50,106,102,83,75,15431,2147447908,2147794907,2147579785,2147826651,2147306971,2147453888,2147754578,2148271634,2936,6,14,7539
1342828489,5806,810.0000000000000000,216.7268066406250000,531.0402221679688000,6.9051280021667480,38.0244102478027340,52,106,103,84,77,15426,2147437120,2147798985,2147585216,2147831625,2147306377,2147446098,2147768749,2148278573,874,6,14,48411
1342832089,5804,10.1000003814697270,225.1047058105468800,538.6046142578125000,6.6664581298828125,37.6930885314941400,51,107,102,83,75,15422,2147428516,2147800283,2147587264,2147834715,2147305106,2147447798,2147764013,2148279204,27,6,14,56228
1342835689,5806,11.3999996185302730,225.3838958740234400,538.3239135742188000,6.6753230094909670,37.6737403869628900,51,159,103,83,75,15424,2147429165,2147795803,2147589705,2147834322,2147306413,2147451382,2147765056,2148281362,3466,6,14,63209
1342839289,5801,1083.0000000000000000,226.1192016601562500,539.9650268554688000,6.6234889030456540,37.6625518798828100,51,105,103,84,75,15383,2147432082,2147796434,2147588736,2147835382,2147306980,2147445394,2147765458,2148283913,3482,6,14,57662
1342842889,5806,11.3000001907348630,227.5919952392578000,541.2106933593750000,6.5841307640075680,37.6058692932128900,51,105,101,84,77,15423,2147432210,2147800219,2147587776,2147834358,2147304484,2147447085,2147761819,2148282121,100,6,14,30107
1342846489,5805,10.1999998092651370,227.6575012207031200,541.7753295898438000,6.5662879943847660,37.6125793457031250,51,108,103,82,78,15420,2147431113,2147798473,2147588059,2147832219,2147305353,2147448667,2147767981,2148279433,350,6,14,40432
1342850089,5802,12.0000000000000000,228.8538970947265600,541.8322753906250000,6.5644888877868650,37.5487709045410160,51,104,103,82,76,15417,2147427392,2147799012,2147587867,2147835785,2147305837,2147446537,2147765275,2148281389,2944,6,15,9999
1342853689,5803,1275.0000000000000000,228.3506927490234400,541.5656738281250000,6.5729141235351560,37.5707702636718750,51,106,102,84,76,15416,2147431003,2147802998,2147585709,2147836013,2147306322,2147450468,2147764754,2148278272,525,6,15,1393
1342857289,5805,1209.0000000000000000,228.5106048583984400,543.1213989257812000,6.5237388610839840,37.5900382995605500,52,104,103,82,76,15416,2147431661,2147799040,2147586313,2147836516,2147307885,2147449956,2147772214,2148284242,3362,6,14,53027
1342860889,5805,1155.0000000000000000,231.5312957763672000,545.2827758789062000,6.4553890228271480,37.4678001403808600,51,108,103,82,77,15412,2147427264,2147797312,2147588873,2147836251,2147305152,2147449462,2147770560,2148281755,48,6,14,4524
1342864489,5803,1087.0000000000000000,231.9179992675781200,547.1779174804688000,6.3954281806945800,37.4817314147949200,51,104,105,83,76,15090,2147431542,2147799780,2147587291,2147835163,2147305115,2147449380,2147769005,2148283318,3337,6,14,14310
1342868089,5803,11.6000003814697270,233.1282958984375000,547.3862304687500000,6.3888359069824220,37.4216194152832000,51,105,103,84,76,15091,2147433298,2147798976,2147589074,2147836434,2147307492,2147445302,2147768804,2148281353,3383,6,15,47572
1342871689,5805,1256.0000000000000000,233.3206939697265600,546.4459838867188000,6.4185891151428220,37.3941307067871100,51,107,105,83,76,15082,2147432493,2147799259,2147587931,2147838848,2147305764,2147447085,2147770642,2148281270,315,6,14,15667
1342875289,5808,12.3000001907348630,232.4398956298828000,546.4133300781250000,6.4196209907531740,37.4403190612793000,51,105,102,81,76,15089,2147430144,2147798198,2147589238,2147835200,2147307126,2147447826,2147765705,2148281462,62,6,14,1859
1342878889,5805,13.5000000000000000,232.1002044677734400,544.7808837890625000,6.4712619781494140,37.4284896850585940,51,107,103,81,77,15082,2147428809,2147797001,2147588297,2147836352,2147307373,2147448484,2147767387,2148283026,2784,6,15,29082
1342882489,5805,12.0000000000000000,230.4031066894531200,543.6632080078125000,6.5066089630126950,37.4989700317382800,50,107,103,82,76,15081,2147429504,2147799323,2147586569,2147834486,2147303643,2147444306,2147764598,2148282560,145,6,14,19864
1342886089,5803,1062.0000000000000000,231.3690948486328000,544.3010253906250000,6.4864392280578610,37.4586296081543000,51,106,103,82,77,15082,2147429769,2147797330,2147588141,2147833700,2147306313,2147449280,2147768585,2148282971,525,6,15,3625
1342889689,5807,1087.0000000000000000,231.5294036865234400,544.3201904296875000,6.4858341217041020,37.4509582519531250,52,105,102,81,76,15083,2147429467,2147797778,2147587922,2147836534,2147305261,2147451053,2147767305,2148281819,931,6,14,3044
1342893289,5805,13.3999996185302730,230.5043029785156200,542.9398803710938000,6.5294761657714840,37.4803504943847660,51,105,104,83,76,15082,2147430427,2147796544,2147587190,2147836882,2147308717,2147448438,2147762587,2148279341,298,6,14,62969
1342896889,5805,1057.0000000000000000,229.0348968505859400,543.3967285156250000,6.5150361061096190,37.5673408508300800,51,106,103,83,76,15060,2147428992,2147799021,2147584045,2147834486,2147306486,2147442413,2147767771,2148279360,3503,6,15,45625
1342900489,5804,10.6000003814697270,229.5166015625000000,543.5842285156250000,6.5091061592102050,37.5449714660644500,51,106,103,82,76,15032,2147430189,2147797147,2147587446,2147834020,2147308827,2147450194,2147767021,2148280210,323,6,14,53475
1342904089,5805,11.5000000000000000,227.4635925292968800,542.2750854492188000,6.5504889488220215,37.6315307617187500,51,108,104,83,75,15080,2147427821,2147803593,2147588306,2147834176,2147306166,2147441874,2147767872,2148282349,206,6,15,30330
1342907689,5806,11.1999998092651370,227.4880065917968800,542.1699218750000000,6.5538158416748050,37.6280517578125000,51,105,102,82,75,15076,2147431716,2147797888,2147589705,2147838528,2147304813,2147448466,2147767798,2148275913,19,6,14,49144
1342911289,5802,12.0000000000000000,229.1746063232422000,542.7509155273438000,6.5354518890380860,37.5481605529785160,51,105,103,83,77,15070,2147431104,2147798390,2147590180,2147833243,2147305444,2147441792,2147767936,2148281115,3475,6,15,8538
1342914889,5806,10.8999996185302730,230.0173950195312500,542.8942871093750000,6.5309162139892580,37.5051689147949200,51,107,103,84,76,15075,2147428580,2147798948,2147589686,2147834925,2147307227,2147448237,2147766628,2148281481,145,6,14,62202
1342918489,5804,12.5000000000000000,227.4465026855468800,541.2830200195312000,6.5818462371826170,37.6147003173828100,51,107,102,82,76,15071,2147431451,2147801088,2147586834,2147834203,2147304256,2147445741,2147767030,2148279817,32,6,14,54834
1342922089,5802,11.6000003814697270,227.3612976074218800,542.5162963867188000,6.5428681373596190,37.6412811279296900,52,104,102,83,77,15071,2147428416,2147796489,2147587309,2147832402,2147306788,2147447762,2147769435,2148282121,210,6,15,5271
1342925689,5806,1177.0000000000000000,227.5475006103515600,543.1625976562500000,6.5224361419677730,37.6429710388183600,52,111,102,82,76,15068,2147430253,2147798720,2147589942,2147833590,2147306221,2147447314,2147765330,2148281554,53,6,14,31593
1342929289,5806,10.6000003814697270,227.0641937255859400,542.3090820312500000,6.5494170188903810,37.6536102294921900,51,105,103,82,77,15068,2147432310,2147800978,2147587200,2147832813,2147306139,2147450240,2147762441,2148280000,203,6,15,44378
1342932889,5804,10.8000001907348630,229.9127960205078000,544.4420776367188000,6.4819760322570800,37.5392684936523440,51,105,103,83,76,15070,2147431835,2147799771,2147587172,2147837147,2147305462,2147447707,2147766646,2148281938,2789,6,14,31325
1342936489,5803,1018.0000000000000000,231.1741027832031200,544.2440185546875000,6.4882431030273440,37.4684791564941400,51,106,101,83,75,15068,2147429851,2147802998,2147586102,2147832996,2147303853,2147446509,2147757558,2148282742,2928,6,14,56431
1342940089,5803,1230.0000000000000000,230.5814056396484400,543.5211791992188000,6.5110988616943360,37.4867286682128900,51,108,102,82,77,15064,2147427830,2147801435,2147587547,2147834578,2147306203,2147446089,2147768228,2148282048,2758,6,15,5098
1342943689,5806,11.6999998092651370,227.9790039062500000,543.1798095703125000,6.5218930244445800,37.6199684143066400,51,107,102,82,76,15066,2147429769,2147801627,2147588068,2147835492,2147306560,2147448265,2147767122,2148280786,518,6,15,7631
1342947289,5804,1213.0000000000000000,228.8531951904297000,542.9177246093750000,6.5301799774169920,37.5683403015136700,51,105,102,83,76,15065,2147432841,2147798299,2147586907,2147832969,2147306614,2147450861,2147767734,2148282011,668,6,14,12545
1342950889,5806,1271.0000000000000000,228.3836059570312500,543.1013183593750000,6.5243759155273440,37.5969505310058600,50,106,102,82,75,15064,2147434038,2147800073,2147586057,2147836114,2147307675,2147450304,2147771264,2148278957,641,6,14,59487
1342954489,5804,1195.0000000000000000,229.8473968505859400,543.6467895507812000,6.5071277618408200,37.5280914306640600,51,105,101,82,76,15064,2147428589,2147800374,2147586550,2147833600,2147306121,2147449673,2147771099,2148281462,3290,6,15,13065
1342958089,5804,10.3000001907348630,230.7044982910156200,543.9501953125000000,6.4975337982177730,37.4878692626953100,51,104,103,82,77,15058,2147430921,2147797531,2147587401,2147834834,2147306642,2147447670,2147767058,2148279250,117,6,14,54551
1342961689,5807,145.0000000000000000,230.1846008300781200,544.1193847656250000,6.4921817779541020,37.5185890197753900,50,107,101,82,77,15058,2147431195,2147798765,2147586176,2147835172,2147307117,2147445714,2147768100,2148279597,256,6,14,39038
1342965057,5805,12.1000003814697270,230.0776977539062500,543.8712768554688000,6.5000271797180180,37.5199699401855500,51,107,102,83,76,15055,2147429220,2147799771,2147586880,2147833746,2147303360,2147448347,2147772470,2148285120,378,6,15,2940
